Location: Unspecified
(0.0000°N, 0.0000°E)
Time: 01:36:06
(UTC+02:00)

GPS 2-12 Rocket1 - Visible Passes

Search period start: 23 August 2014 00:00
Search period end: 02 September 2014 00:00
Orbit: 592 x 660 km, 20.0° (Epoch: 21 August)

Date Brightness Start Highest point End Pass type
(mag) Time Alt. Az. Time Alt. Az. Time Alt. Az.
23 Aug 3.2 06:28:27 54° NNW 06:28:31 54° NNW 06:32:53 10° ENE visible
24 Aug 4.1 06:45:40 26° NW 06:46:49 30° NNW 06:50:45 10° NE visible
24 Aug 5.6 20:39:19 10° SSW 20:40:13 10° SSW 20:41:07 10° S visible
25 Aug 6.1 05:25:44 11° ENE 05:25:44 11° ENE 05:25:50 10° ENE visible
25 Aug 4.9 07:02:52 13° NW 07:05:12 18° NNW 07:08:18 10° NNE visible
26 Aug 5.7 05:42:55 15° NE 05:42:55 15° NE 05:43:45 10° NE visible
26 Aug 5.3 07:22:06 10° NW 07:23:41 12° NNW 07:25:17 10° N visible
27 Aug 5.4 06:00:05 15° NNE 06:00:05 15° NNE 06:01:21 10° NNE visible
28 Aug 5.4 06:17:13 12° N 06:17:13 12° N 06:18:26 10° N visible
01 Sep 5.4 21:23:20 10° S 21:24:56 12° S 21:24:56 12° S visible
